SCP
0 0 0 0 0 0 0 0 0 0 0 0 0 0 0 0 0 0 0 0 0 0 0 0 1 1 1 1 0 0 0 0 0 0 0 0 0 0 0 0 0 0 0 0 0 0 0 0 0
0 0 0 0 0 0 0 0 0 0 0 0 0 0 0 0 0 0 0 0 0 0 0 0 1 1 1 1 0 0 0 0 0 0 0 0 0 0 0 0 0 0 0 0 0 0 0 0 0
0 0 0 0 0 0 0 0 0 0 0 0 0 0 0 0 0 0 0 0 0 0 0 0 0 1 1 1 0 0 0 0 0 0 0 0 0 0 0 0 0 0 0 0 0 0 0 0 0
0 0 0 0 0 0 0 0 0 0 0 0 0 0 0 0 0 0 0 0 0 0 0 0 0 1 1 1 0 0 0 0 0 0 0 0 0 0 0 0 0 0 0 0 0 0 0 0 0
0 0 0 0 0 0 0 0 0 0 0 0 0 0 0 0 1 0 0 0 0 0 0 0 0 1 1 1 0 0 0 0 0 0 0 0 0 0 0 0 0 0 0 0 0 0 0 0 0
0 0 0 0 0 0 0 0 0 0 0 0 0 0 0 1 1 1 1 1 0 0 0 0 1 1 1 1 0 0 0 0 0 0 0 0 0 0 0 0 0 0 0 0 0 0 0 0 0
0 0 0 0 0 0 0 0 0 0 0 0 0 0 0 1 1 1 1 1 1 1 1 1 0 0 0 0 0 0 0 0 0 0 0 0 0 0 0 0 0 0 0 0 0 0 0 0 0
0 0 0 0 0 0 0 0 0 0 0 0 0 0 0 1 1 1 1 1 1 1 1 1 0 0 0 0 0 0 0 0 0 0 0 0 0 0 0 0 0 0 0 0 0 0 0 0 0
0 0 0 0 0 0 0 0 0 0 0 0 0 0 0 0 1 1 1 1 1 1 1 1 0 0 0 0 0 0 0 0 0 0 0 0 0 0 0 0 0 0 0 0 0 0 0 0 0
0 0 0 0 0 0 0 0 0 0 0 0 0 0 0 1 1 1 1 1 1 1 1 1 0 0 0 0 0 0 0 0 0 0 0 0 0 0 0 0 0 0 0 0 0 0 0 0 0
0 0 0 0 0 0 0 0 0 0 0 0 0 0 0 0 1 1 1 1 1 1 1 1 0 0 0 0 0 0 0 0 0 0 0 0 0 0 0 0 0 0 0 0 0 0 0 0 0
0 0 0 0 0 0 0 0 0 0 0 0 0 0 0 0 1 1 1 1 1 1 1 1 0 0 0 0 0 0 0 0 0 0 0 0 0 0 0 0 0 0 0 0 0 0 0 0 0
0 0 0 0 0 0 0 0 0 0 0 0 0 0 0 0 0 1 1 1 1 1 1 1 1 0 0 0 0 0 0 0 0 0 0 0 0 0 0 0 0 0 0 0 0 0 0 0 0
0 0 0 0 0 0 0 0 0 0 0 0 0 0 0 0 0 0 1 1 1 1 1 1 1 1 0 0 0 0 0 0 0 0 0 0 0 0 0 0 0 0 0 0 0 0 0 0 0
0 0 0 0 0 0 0 0 0 0 0 0 0 0 0 0 0 0 0 0 0 1 1 1 1 1 0 0 0 0 0 0 0 0 0 0 0 0 0 0 0 0 0 0 0 0 0 0 0
0 0 0 1 1 1 0 0 0 0 0 0 0 0 0 0 0 0 0 0 0 0 1 1 1 1 1 0 0 0 0 0 0 0 0 0 0 0 0 0 0 0 0 0 0 0 0 0 0
0 0 0 1 1 1 1 0 0 0 0 0 0 0 0 0 0 0 0 0 0 0 0 1 1 1 1 0 0 0 0 0 0 0 0 0 0 0 0 0 0 0 0 0 0 0 0 0 0
0 0 0 1 1 0 0 0 0 0 0 0 0 0 0 0 0 0 0 0 0 0 0 0 1 1 1 1 0 0 0 0 0 0 0 0 0 0 0 0 0 0 0 0 0 0 0 0 0
0 0 0 0 0 0 0 0 0 0 0 0 0 0 0 0 0 0 0 0 0 0 0 0 1 1 1 1 0 0 0 0 0 0 0 0 0 0 1 1 0 0 0 0 0 0 0 0 0
0 0 0 0 0 0 0 0 0 0 0 0 0 0 0 0 0 0 0 0 0 0 0 0 0 1 1 1 0 0 0 0 0 0 0 0 0 0 0 1 1 1 0 0 0 0 0 0 0
0 0 0 0 0 0 0 0 0 0 0 0 0 0 0 0 0 0 0 0 0 0 0 0 0 1 1 1 1 0 0 0 0 0 0 0 0 0 0 0 1 1 1 1 1 0 0 0 0
0 0 0 0 0 0 0 0 0 0 0 0 0 0 0 0 0 0 0 0 0 0 0 0 0 0 1 1 1 0 0 0 0 0 0 0 0 0 0 0 0 0 1 1 1 1 1 0 0
0 0 0 0 0 0 0 0 0 0 0 0 0 0 0 0 0 0 0 0 0 0 0 0 0 0 1 1 1 1 0 0 0 0 0 0 0 0 0 0 0 0 0 1 1 1 1 1 0
0 0 0 0 0 0 0 0 0 0 0 0 0 0 0 0 0 0 0 0 0 0 0 0 0 0 0 1 1 1 1 0 0 0 0 0 0 0 0 0 0 0 0 0 0 1 1 1 0
0 0 0 0 0 0 0 0 0 0 0 0 0 0 0 0 0 0 0 0 0 0 0 0 0 0 0 1 1 1 1 1 0 0 0 0 0 0 0 0 0 0 0 0 0 0 1 1 1
0 0 0 0 0 0 0 0 0 0 0 0 0 0 0 0 0 0 0 0 0 0 0 0 0 0 0 1 1 1 1 1 1 0 0 0 0 0 0 0 0 0 0 0 0 0 0 0 0
0 0 0 0 0 0 0 0 0 0 0 0 0 0 0 0 0 0 0 0 0 0 0 0 0 0 0 0 1 1 1 1 1 0 0 0 0 0 0 0 0 0 0 0 0 0 0 0 0
0 0 0 0 0 0 0 0 0 0 0 0 0 0 0 0 0 0 0 0 0 0 0 0 0 0 0 1 1 1 1 1 0 0 0 0 0 0 0 0 0 0 0 0 0 0 0 0 0
0 0 0 0 0 0 0 0 0 0 0 0 0 0 0 0 0 0 0 0 0 0 0 0 0 0 0 1 1 1 1 1 0 0 0 0 0 0 0 0 0 0 0 0 0 0 0 0 0
0 0 0 0 0 0 0 0 0 0 0 0 0 0 0 0 0 0 0 0 0 0 0 0 0 0 0 1 1 1 1 1 0 0 0 0 0 0 0 0 0 0 0 0 0 0 0 0 0
Wind_Speed
14 7 1 4 6 6 1 1 1 2 2 2 4 5 6 5 3 3 2 3 4 3 3 4 7 9 9 10 10 10 10 10 10 10 10 10 10 10 10 10 10 10 10 10 10 10 10 10 10
6 3 4 6 5 2 1 1 1 1 1 2 5 5 5 4 3 4 2 4 4 4 4 5 8 9 9 10 10 10 10 10 10 10 10 10 10 10 9 10 10 10 10 9 9 9 9 9 9
4 3 5 5 4 3 3 1 1 2 4 3 4 4 3 3 2 2 2 2 4 5 4 5 9 9 10 10 10 10 10 10 10 10 10 10 10 10 9 10 10 10 10 9 9 9 8 8 8
3 5 6 5 2 1 1 0 1 2 4 5 3 4 3 4 2 1 2 4 6 5 5 6 9 10 10 10 10 10 10 10 10 10 10 10 10 10 10 10 10 10 9 9 9 8 8 8 8
4 5 5 2 2 0 1 2 3 3 2 3 3 4 3 4 4 4 4 5 6 5 6 6 9 10 10 10 10 10 10 10 10 10 10 10 10 10 10 9 9 9 9 9 9 9 8 8 8
5 5 4 3 2 1 1 2 2 4 3 2 3 4 3 4 5 4 5 5 6 6 6 6 9 10 10 10 10 10 10 10 10 11 10 10 9 9 9 9 9 8 8 8 8 8 8 8 8
4 4 4 4 3 1 1 2 3 3 3 1 1 4 2 3 3 4 5 6 6 6 6 6 6 7 9 10 10 10 10 10 10 10 11 10 10 9 9 9 9 8 8 8 8 8 8 8 8
3 5 3 3 4 2 1 2 3 3 2 3 3 4 2 1 3 5 6 6 6 6 6 5 6 6 5 6 9 10 10 10 10 10 10 10 9 9 9 9 8 8 8 8 8 8 8 8 8
3 4 3 3 5 3 2 3 3 3 5 4 4 3 2 5 5 6 5 5 5 5 5 4 5 5 5 5 7 7 8 9 8 8 9 8 5 5 5 8 9 8 8 8 8 8 8 8 7
5 3 2 0 3 4 3 3 3 3 4 3 4 5 5 6 6 5 5 4 4 3 3 3 3 4 4 4 4 4 4 5 5 5 5 4 4 4 5 7 8 9 8 7 7 7 7 6 4
4 3 2 3 3 4 4 3 2 5 2 1 3 3 4 5 5 4 4 3 3 2 2 2 2 3 4 3 3 2 3 3 4 5 5 4 3 3 4 3 5 5 6 5 6 5 4 3 3
4 4 2 2 3 3 3 3 3 2 1 1 4 6 5 5 4 3 3 2 2 2 2 2 2 3 3 3 2 3 3 3 3 4 5 4 3 3 3 3 4 3 3 3 4 3 4 4 3
4 3 4 4 5 5 5 3 3 1 1 4 6 6 5 4 3 2 2 2 2 2 2 2 2 3 3 3 2 3 2 3 3 3 4 4 3 3 3 3 3 3 3 3 3 3 3 3 3
3 4 3 3 3 3 4 2 2 0 3 5 6 5 4 3 3 3 2 2 2 1 2 2 3 2 3 3 2 2 2 2 2 3 3 4 3 2 2 3 3 3 3 3 2 2 2 2 2
2 3 4 4 2 1 3 2 1 2 4 4 4 3 3 2 2 2 1 1 1 1 1 1 2 3 3 3 2 2 2 2 2 2 3 3 3 2 2 2 2 3 3 3 3 3 2 2 3
2 3 2 3 2 1 3 3 2 3 4 3 2 2 2 1 1 1 1 1 1 1 1 1 2 2 2 2 2 1 1 2 1 1 2 3 3 3 2 2 2 3 3 2 2 3 2 2 2
4 1 0 3 2 1 2 4 2 3 4 4 3 3 2 1 1 1 0 1 1 1 1 1 1 2 2 2 2 2 1 1 1 2 2 3 3 3 2 2 3 3 2 2 3 3 2 2 2
2 1 1 2 3 2 1 4 4 3 4 4 3 3 3 2 2 1 1 1 1 1 1 1 1 1 1 1 1 1 2 2 2 2 2 3 3 3 2 2 3 3 3 3 3 3 3 2 2
3 2 1 3 3 1 2 4 6 3 4 4 4 4 4 3 2 1 0 1 1 2 1 1 1 1 1 1 1 1 1 2 2 2 3 3 3 3 2 2 2 3 2 3 3 2 3 3 3
3 1 2 3 3 1 2 6 6 4 5 6 6 6 5 3 2 1 1 0 1 1 1 1 1 1 1 0 0 1 1 1 1 1 2 3 3 3 3 2 2 2 2 3 3 3 2 2 2
1 3 3 2 4 2 2 6 3 2 2 2 3 4 3 4 4 2 1 1 1 1 1 1 1 1 1 1 1 1 1 1 1 2 2 3 3 3 3 2 2 2 1 2 2 2 2 2 2
2 2 3 1 1 3 2 4 6 2 3 3 4 3 4 4 3 3 2 2 2 2 1 1 1 1 1 1 1 0 0 1 2 2 2 3 3 3 3 3 2 2 2 2 2 2 2 1 2
2 0 1 1 1 2 1 1 8 1 3 5 5 4 4 4 3 3 3 2 2 1 1 1 1 1 1 1 0 0 1 1 1 1 2 2 2 2 3 3 2 2 2 2 3 3 2 2 2
1 2 2 2 2 2 2 2 7 3 5 4 4 4 4 3 2 2 2 1 2 1 1 0 0 1 1 1 0 0 1 1 2 2 2 2 2 2 3 3 3 3 2 3 3 2 2 2 2
2 3 4 5 3 4 1 2 9 5 4 4 4 4 3 3 3 2 2 2 2 2 1 1 0 1 1 0 0 0 1 1 1 2 2 3 2 2 3 3 3 3 3 3 2 2 2 2 2
1 2 4 2 3 5 2 5 7 4 3 3 2 2 2 3 3 3 3 3 2 2 1 1 1 1 1 1 1 1 1 1 1 2 2 2 2 2 3 3 3 3 3 3 2 2 2 2 2
1 1 1 3 1 2 5 6 8 3 3 3 2 1 2 3 3 3 3 3 2 2 2 1 1 1 1 1 1 1 1 1 1 2 2 2 2 2 3 3 3 3 3 3 2 2 3 2 2
1 2 2 3 1 3 6 5 5 5 4 4 3 3 3 2 2 3 3 3 2 2 1 1 2 1 1 1 1 1 1 1 1 1 2 2 3 2 2 2 2 2 2 3 2 2 2 3 3
1 1 2 2 2 3 3 7 5 5 4 4 5 4 3 3 3 3 2 2 2 1 1 1 1 1 0 0 0 1 1 1 1 1 2 3 3 2 2 2 2 2 3 3 2 2 3 3 3
1 2 2 2 2 3 3 9 3 3 3 3 5 4 3 3 3 2 2 1 1 1 1 1 1 1 1 1 0 0 1 1 1 2 2 2 2 2 2 2 2 2 2 2 2 2 3 2 3
Wind_Direction
330 325 23 55 57 58 90 305 49 31 49 44 54 84 101 92 95 112 11 29 38 52 32 44 57 73 76 76 76 76 75 74 74 75 74 74 73 73 72 67 65 64 66 65 64 61 60 59 59
322 334 48 57 85 99 253 270 78 40 90 92 53 61 70 63 50 77 24 359 52 64 49 48 57 69 73 74 73 73 73 72 72 71 72 72 69 68 70 67 64 61 61 61 61 58 55 54 54
328 33 70 72 100 160 182 177 119 60 55 61 69 52 69 56 49 60 358 33 59 60 51 51 60 69 73 72 71 71 71 69 69 69 69 70 67 63 64 64 61 58 56 55 58 57 54 50 48
35 46 59 78 133 198 193 278 101 97 44 42 91 75 64 35 23 29 68 75 71 56 49 52 61 69 73 70 70 70 69 67 65 65 64 64 63 60 60 60 58 55 53 52 52 53 52 48 44
54 73 75 87 187 170 36 24 83 86 73 36 81 98 66 15 33 66 86 82 78 62 52 55 58 61 67 69 68 67 65 63 60 60 61 60 58 56 55 55 54 51 50 48 47 47 45 42 41
57 70 104 174 185 136 58 30 79 64 68 48 77 103 88 38 56 71 75 73 72 69 57 54 53 54 56 58 62 62 61 62 60 57 55 56 56 53 52 50 49 46 45 45 44 41 41 39 38
96 102 148 162 161 165 149 58 74 84 67 37 85 111 102 45 57 81 79 73 68 67 62 52 49 50 49 50 50 53 55 56 55 53 51 48 47 48 43 40 41 41 39 40 38 36 36 38 36
106 107 130 162 162 176 101 65 63 70 80 27 61 116 133 91 94 92 85 76 71 64 60 53 48 47 44 45 47 47 50 50 48 46 44 43 41 41 39 33 30 32 33 34 32 33 32 31 33
74 87 176 191 169 160 115 89 48 43 81 56 45 59 82 111 109 102 91 78 73 65 56 49 50 48 45 47 43 42 44 44 43 40 39 38 29 28 29 26 23 20 23 25 27 28 29 29 28
63 123 200 174 144 133 106 99 115 79 60 56 44 45 75 106 114 117 113 105 90 72 57 47 51 49 46 46 41 33 37 37 36 34 32 31 25 22 23 20 20 17 17 20 23 23 24 27 16
62 120 105 48 80 108 105 87 91 119 91 159 150 132 123 117 116 118 112 111 114 106 68 46 51 50 50 47 46 34 32 32 32 31 28 26 27 21 20 15 11 9 11 9 8 12 14 17 14
76 47 57 46 41 74 104 116 84 97 183 149 141 138 135 132 134 127 117 99 108 101 72 48 54 52 49 49 46 41 34 30 29 23 24 26 25 20 16 18 7 5 3 360 3 3 0 9 11
76 71 55 52 60 74 87 87 109 90 64 103 115 125 131 133 128 107 96 89 79 83 64 52 62 56 50 52 40 44 36 33 25 22 20 25 27 17 10 6 5 3 357 356 353 356 356 359 4
95 89 52 29 43 54 84 61 81 172 136 122 123 126 129 128 117 92 83 79 56 56 50 42 53 52 55 57 46 39 34 28 26 23 17 21 21 16 10 3 357 355 351 345 340 339 346 348 357
98 70 24 3 6 38 83 26 224 190 142 135 137 139 129 103 90 94 82 73 62 62 43 48 66 55 57 55 48 41 31 36 32 16 11 16 16 10 6 1 355 346 340 340 345 342 348 355 4
52 53 23 335 6 346 120 238 223 164 147 160 171 160 138 97 89 98 82 78 50 56 58 40 54 61 60 55 48 39 32 33 26 11 5 7 6 4 2 359 344 335 343 351 347 349 348 348 352
42 89 236 313 355 15 152 236 238 180 168 185 192 191 177 167 1 345 28 99 81 60 62 66 64 69 64 55 52 45 41 31 10 11 3 357 359 0 0 356 343 340 351 356 355 355 349 342 342
174 158 237 274 329 29 270 265 265 231 198 206 203 198 205 214 259 289 344 20 56 47 47 72 92 84 78 63 47 41 38 25 13 13 4 359 354 352 355 0 349 349 356 355 355 353 348 334 327
135 131 216 275 292 335 250 266 266 242 218 222 218 210 217 230 259 291 332 26 39 34 34 38 58 49 74 52 33 9 354 345 1 5 5 1 355 352 356 1 354 358 2 349 341 341 348 344 344
116 163 278 299 325 308 301 283 268 239 219 221 219 219 222 230 234 246 270 5 16 349 346 14 1 1 3 5 209 220 277 288 329 355 4 360 357 355 3 5 356 353 351 353 354 349 338 326 353
315 209 231 273 319 357 338 305 268 257 233 224 222 218 221 220 230 236 246 256 269 304 314 325 322 338 354 19 50 34 33 353 354 357 355 350 352 360 357 350 348 349 346 339 335 336 326 299 320
282 226 207 239 351 328 50 301 288 262 268 239 229 220 226 232 230 234 240 260 262 263 271 295 326 335 358 59 90 61 324 291 291 311 324 335 344 352 349 345 345 343 337 334 324 332 316 290 299
214 232 174 204 181 321 8 237 285 298 263 247 232 226 227 228 221 227 235 240 255 256 249 258 316 329 4 39 52 329 314 290 305 333 328 332 338 343 346 339 339 336 331 330 329 328 330 315 290
222 40 36 39 73 303 248 190 279 244 228 237 228 223 224 226 223 224 241 255 266 272 271 246 286 311 357 43 24 305 316 328 335 334 328 327 329 333 339 341 337 327 324 322 317 319 322 310 302
48 68 26 10 10 261 256 216 254 262 244 225 231 233 227 217 214 220 231 249 256 258 252 240 232 302 326 337 273 253 272 279 291 310 310 317 325 327 327 334 328 323 320 317 320 322 317 308 301
3 108 135 197 246 290 295 241 260 280 290 278 246 228 221 220 218 226 230 231 240 249 250 237 244 275 309 279 269 260 264 256 273 290 300 298 301 306 318 325 322 322 326 329 332 329 323 331 324
76 84 133 122 49 300 279 284 300 287 305 316 309 276 251 239 233 236 240 234 235 240 243 221 228 251 278 269 274 281 310 307 297 300 307 298 307 314 323 320 327 337 339 336 335 329 326 328 328
58 142 98 113 123 297 299 283 268 292 297 308 298 275 270 271 271 262 245 233 232 225 233 210 201 222 253 277 277 320 325 312 308 310 310 307 314 322 322 331 336 337 342 346 349 345 343 344 339
47 70 107 112 153 174 284 277 231 238 261 274 276 269 260 266 269 267 259 243 226 216 219 225 210 220 247 261 304 343 331 344 349 330 317 312 317 322 325 321 328 335 345 349 356 352 346 353 347
201 199 164 164 239 211 237 271 267 232 272 274 283 286 283 279 276 267 257 239 231 221 231 234 225 229 234 229 1 326 339 345 338 316 314 326 335 336 334 335 341 343 347 343 345 343 340 341 336